This demonstration page uses our WeatherBlox Daily Observations layout. Learn more.

Left ArrowRight Arrow

36.19886, -115.1175

Hourly Observations for February 18, 2021

Temp ( °F °C ) Dew Point ( °F °C ) Humidity (%) Winds ( mph kmh ) Pressure ( in mb ) Visibility ( mi km ) Precip ( " mm )
12:53 am 00:53 Clear 46 7.8 5 -15 18 18 NW 13 20 30.28 1026 10 16 N/A
1:53 am 01:53 Clear 45 7.2 5 -15 19 19 NNW 13 20 30.29 1026 10 16 N/A
2:53 am 02:53 Clear 44 6.7 6 -14.4 21 21 NW 16 26 30.30 1026 10 16 N/A
3:53 am 03:53 Clear 44 6.7 7 -13.9 22 22 NNW 14 22 30.31 1027 10 16 N/A
4:53 am 04:53 Clear 43 6.1 7 -13.9 22 22 NNW 13 20 30.35 1028 10 16 N/A
5:53 am 05:53 Clear 42 5.6 8 -13.3 24 24 NNW 13 20 30.37 1029 10 16 N/A
6:53 am 06:53 Sunny 42 5.6 8 -13.3 24 24 NNW 14 22 30.41 1030 10 16 N/A
7:53 am 07:53 Sunny 44 6.7 8 -13.3 23 23 NNW 15 24 30.45 1031 10 16 N/A
8:53 am 08:53 Sunny 47 8.3 9 -12.8 21 21 NNW 15 24 30.46 1032 10 16 N/A
9:53 am 09:53 Sunny 49 9.4 9 -12.8 20 20 NW 9 15 30.45 1031 10 16 N/A
10:53 am 10:53 Sunny 51 10.6 9 -12.8 18 18 NNW 3 6 30.45 1031 10 16 N/A
11:53 am 11:53 Sunny 51 10.6 8 -13.3 17 17 SSE 5 7 30.42 1030 10 16 N/A
12:53 pm 12:53 Sunny 53 11.7 7 -13.9 15 15 N N/A 30.40 1029 10 16 N/A
1:53 pm 13:53 Sunny 55 12.8 7 -13.9 14 14 E 6 9 30.37 1029 10 16 N/A
2:53 pm 14:53 Sunny 54 12.2 6 -14.4 14 14 N N/A 30.37 1028 10 16 N/A
3:53 pm 15:53 Sunny 55 12.8 7 -13.9 14 14 ESE 8 13 30.36 1028 10 16 N/A
4:53 pm 16:53 Sunny 54 12.2 7 -13.9 15 15 E 5 7 30.35 1028 10 16 N/A
5:53 pm 17:53 Clear 53 11.7 7 -13.9 15 15 ESE 6 9 30.37 1028 10 16 N/A
6:53 pm 18:53 Clear 52 11.1 7 -13.9 16 16 N N/A 30.37 1029 10 16 N/A
7:53 pm 19:53 Clear 51 10.6 9 -12.8 18 18 N N/A 30.38 1029 10 16 N/A
8:53 pm 20:53 Clear 49 9.4 12 -11.1 22 22 W 5 7 30.37 1028 10 16 N/A
9:53 pm 21:53 Clear 47 8.3 12 -11.1 24 24 N 3 6 30.37 1028 10 16 N/A
10:53 pm 22:53 Clear 45 7.2 13 -10.6 27 27 NW 3 6 30.35 1028 10 16 N/A
11:53 pm 23:53 Clear 43 6.1 12 -11.1 28 28 WNW 5 7 30.35 1028 10 16 N/A

Powered by AerisWeather